| time (UTC) | temp F | wind direction | speed knots | gust knots | rain 1hr in | rain 24hr in | rain mn in | humidity % | barometer mb |
| 20260902194036 | 58 | 0.0 | 0.0 | 0.00 | 0.00 | 0.00 | 93 | 1019.3 | |
| 20260902192109 | 59 | 0.0 | 0.0 | 0.00 | 0.00 | 0.00 | 93 | 1019.2 | |
| 20260902191106 | 59 | 0.0 | 0.0 | 0.00 | 0.00 | 0.00 | 92 | 1019.1 | |
| 20260902182050 | 60 | 0.0 | 0.0 | 0.00 | 0.00 | 0.00 | 88 | 1018.8 | |
| 20260902181047 | 61 | 0.0 | 0.0 | 0.00 | 0.00 | 0.00 | 88 | 1018.7 | |
| 20260902180104 | 62 | 0.0 | 0.0 | 0.00 | 0.00 | 0.00 | 86 | 1018.6 | |
| 20260902175041 | 63 | 0.0 | 0.0 | 0.00 | 0.00 | 0.00 | 85 | 1018.6 | |
| 20260902174038 | 64 | 0.0 | 0.0 | 0.00 | 0.00 | 0.00 | 81 | 1018.5 | |
| 20260902173034 | 66 | 0.0 | 0.0 | 0.00 | 0.00 | 0.00 | 79 | 1018.5 | |
| 20260902172031 | 69 | 0.0 | 0.0 | 0.00 | 0.00 | 0.00 | 71 | 1018.5 | |
| 20260902171108 | 70 | 0.0 | 1.7 | 0.00 | 0.00 | 0.00 | 62 | 1018.5 | |
| 20260902170025 | 71 | 0.0 | 1.7 | 0.00 | 0.00 | 0.00 | 61 | 1018.4 | |
| 20260902165022 | 72 | 0.0 | 0.9 | 0.00 | 0.00 | 0.00 | 63 | 1018.3 | |
| 20260902163016 | 72 | 198 | 0.9 | 5.2 | 0.00 | 0.00 | 0.00 | 63 | 1018.4 |
| 20260902162113 | 73 | 266 | 0.9 | 3.5 | 0.00 | 0.00 | 0.00 | 62 | 1018.3 |
| 20260902161110 | 74 | 225 | 0.0 | 2.6 | 0.00 | 0.00 | 0.00 | 61 | 1018.3 |
| 20260902160106 | 73 | 190 | 0.0 | 4.3 | 0.00 | 0.00 | 0.00 | 64 | 1018.2 |
| 20260902155103 | 73 | 0.0 | 1.7 | 0.00 | 0.00 | 0.00 | 64 | 1018.3 | |
| 20260902154059 | 73 | 283 | 0.9 | 4.3 | 0.00 | 0.00 | 0.00 | 64 | 1018.5 |
| 20260902153056 | 75 | 180 | 0.0 | 1.7 | 0.00 | 0.00 | 0.00 | 64 | 1018.5 |
| 20260902152053 | 75 | 186 | 0.9 | 5.2 | 0.00 | 0.00 | 0.00 | 61 | 1018.5 |
| 20260902151050 | 74 | 225 | 0.0 | 2.6 | 0.00 | 0.00 | 0.00 | 62 | 1018.6 |
| 20260902150047 | 74 | 158 | 0.0 | 1.7 | 0.00 | 0.00 | 0.00 | 63 | 1018.6 |
| 20260902145043 | 74 | 209 | 0.9 | 3.5 | 0.00 | 0.00 | 0.00 | 63 | 1018.7 |
| 20260902143037 | 75 | 251 | 0.9 | 3.5 | 0.00 | 0.00 | 0.00 | 64 | 1018.7 |
| 20260902141031 | 76 | 247 | 0.9 | 3.5 | 0.00 | 0.00 | 0.00 | 60 | 1018.7 |
| 20260902135025 | 75 | 272 | 0.9 | 5.2 | 0.00 | 0.00 | 0.00 | 60 | 1018.6 |
| 20260902134021 | 74 | 219 | 0.9 | 6.1 | 0.00 | 0.00 | 0.00 | 63 | 1018.7 |
| 20260902133018 | 74 | 224 | 1.7 | 6.1 | 0.00 | 0.00 | 0.00 | 63 | 1018.7 |
| 20260902132015 | 74 | 230 | 0.9 | 5.2 | 0.00 | 0.00 | 0.00 | 63 | 1018.8 |
| 20260902131112 | 74 | 203 | 0.9 | 3.5 | 0.00 | 0.00 | 0.00 | 62 | 1018.9 |
| 20260902130109 | 75 | 180 | 0.9 | 2.6 | 0.00 | 0.00 | 0.00 | 62 | 1019.0 |
| 20260902125106 | 75 | 230 | 1.7 | 4.3 | 0.00 | 0.00 | 0.00 | 61 | 1019.0 |
| 20260902124122 | 75 | 327 | 1.7 | 6.1 | 0.00 | 0.00 | 0.00 | 59 | 1019.0 |
| 20260902121053 | 76 | 211 | 0.9 | 4.3 | 0.00 | 0.00 | 0.00 | 60 | 1019.1 |
| 20260902120049 | 74 | 338 | 1.7 | 5.2 | 0.00 | 0.00 | 0.00 | 61 | 1019.1 |
| 20260902115046 | 73 | 236 | 0.9 | 3.5 | 0.00 | 0.00 | 0.00 | 65 | 1019.2 |
| 20260902114042 | 74 | 238 | 1.7 | 5.2 | 0.00 | 0.00 | 0.00 | 64 | 1019.5 |
| 20260902113040 | 75 | 240 | 0.9 | 3.5 | 0.00 | 0.00 | 0.00 | 60 | 1019.5 |
| 20260902112036 | 74 | 0.0 | 1.7 | 0.00 | 0.00 | 0.00 | 62 | 1019.6 | |
| 20260902110050 | 71 | 223 | 1.7 | 7.0 | 0.00 | 0.00 | 0.00 | 68 | 1019.8 |
| 20260902104023 | 73 | 228 | 0.9 | 3.5 | 0.00 | 0.00 | 0.00 | 67 | 1019.9 |
| 20260902103040 | 71 | 0.0 | 1.7 | 0.00 | 0.00 | 0.00 | 72 | 1019.9 | |
| 20260902102018 | 70 | 68 | 0.0 | 2.6 | 0.00 | 0.00 | 0.00 | 75 | 1020.0 |
| 20260902101114 | 69 | 90 | 0.0 | 2.6 | 0.00 | 0.00 | 0.00 | 78 | 1020.1 |
| 20260902100131 | 68 | 167 | 0.0 | 1.7 | 0.00 | 0.00 | 0.00 | 79 | 1020.2 |
| 20260902095108 | 67 | 0.0 | 1.7 | 0.00 | 0.00 | 0.00 | 80 | 1020.4 | |
| 20260902094105 | 66 | 0.0 | 0.9 | 0.00 | 0.00 | 0.00 | 83 | 1020.4 | |
| 20260902093102 | 65 | 0.0 | 0.9 | 0.00 | 0.00 | 0.00 | 85 | 1020.4 | |
| 20260902092059 | 65 | 0.0 | 0.9 | 0.00 | 0.00 | 0.00 | 85 | 1020.4 | |
| 20260902084046 | 61 | 90 | 0.0 | 1.7 | 0.00 | 0.00 | 0.00 | 90 | 1020.2 |
| 20260902082040 | 61 | 0 | 0.0 | 1.7 | 0.00 | 0.00 | 0.00 | 91 | 1020.4 |
| 20260902081036 | 60 | 90 | 0.0 | 1.7 | 0.00 | 0.00 | 0.00 | 91 | 1020.3 |
| 20260902080033 | 60 | 0 | 0.0 | 1.7 | 0.00 | 0.00 | 0.00 | 93 | 1020.2 |
| 20260902075051 | 58 | 0.0 | 1.7 | 0.00 | 0.00 | 0.00 | 93 | 1020.3 | |
| 20260902073024 | 56 | 0.0 | 0.9 | 0.00 | 0.00 | 0.00 | 97 | 1020.2 | |
| 20260902072021 | 56 | 0.0 | 0.0 | 0.00 | 0.00 | 0.00 | 98 | 1020.3 | |
| 20260902071018 | 55 | 0.0 | 0.0 | 0.00 | 0.00 | 0.00 | 99 | 1020.1 | |
| 20260902070115 | 55 | 0.0 | 0.0 | 0.00 | 0.00 | 0.00 | 99 | 1020.1 | |
| 20260902065112 | 54 | 0.0 | 0.9 | 0.00 | 0.00 | 0.00 | 99 | 1020.0 | |
| 20260902064109 | 54 | 0.0 | 0.0 | 0.00 | 0.00 | 0.00 | 99 | 1020.1 | |
| 20260902063105 | 53 | 0.0 | 0.0 | 0.00 | 0.00 | 0.00 | 99 | 1019.9 | |
| 20260902062102 | 53 | 0.0 | 0.0 | 0.00 | 0.00 | 0.00 | 99 | 1020.0 | |
| 20260902061059 | 52 | 0.0 | 0.0 | 0.00 | 0.00 | 0.00 | 99 | 1020.1 | |
| 20260902060056 | 51 | 0.0 | 0.0 | 0.00 | 0.00 | 0.00 | 99 | 1020.1 | |
| 20260902054050 | 51 | 0.0 | 0.0 | 0.00 | 0.00 | 0.00 | 99 | 1020.2 | |
| 20260902053047 | 50 | 0.0 | 0.0 | 0.00 | 0.00 | 0.00 | 99 | 1020.4 | |
| 20260902052103 | 49 | 0.0 | 0.0 | 0.00 | 0.00 | 0.00 | 99 | 1020.2 | |
| 20260902051040 | 48 | 0.0 | 0.0 | 0.00 | 0.00 | 0.00 | 99 | 1020.2 | |
| 20260902044031 | 47 | 0.0 | 0.0 | 0.00 | 0.00 | 0.00 | 99 | 1020.0 | |
| 20260902043028 | 47 | 0.0 | 0.0 | 0.00 | 0.00 | 0.00 | 99 | 1020.0 | |
| 20260902042024 | 47 | 0.0 | 0.0 | 0.00 | 0.00 | 0.00 | 99 | 1020.0 | |
| 20260902041022 | 46 | 0.0 | 0.0 | 0.00 | 0.00 | 0.00 | 99 | 1020.0 | |
| 20260902040018 | 46 | 0.0 | 0.0 | 0.00 | 0.00 | 0.00 | 99 | 1020.0 | |
| 20260902035015 | 47 | 0.0 | 0.0 | 0.00 | 0.00 | 0.00 | 99 | 1019.9 | |
| 20260902034112 | 47 | 0.0 | 0.0 | 0.00 | 0.01 | 0.00 | 99 | 1020.0 | |
| 20260902032106 | 47 | 0.0 | 0.0 | 0.00 | 0.01 | 0.00 | 99 | 1020.0 | |
| 20260902031102 | 47 | 0.0 | 0.0 | 0.00 | 0.01 | 0.00 | 99 | 1020.0 | |
| 20260902025056 | 47 | 0.0 | 0.0 | 0.00 | 0.01 | 0.00 | 99 | 1019.9 | |
| 20260902024053 | 47 | 0.0 | 0.0 | 0.00 | 0.01 | 0.00 | 99 | 1019.9 | |
| 20260902023050 | 48 | 0.0 | 0.0 | 0.00 | 0.01 | 0.00 | 99 | 1019.8 | |
| 20260902022047 | 48 | 0.0 | 0.0 | 0.00 | 0.01 | 0.00 | 99 | 1019.9 | |
| 20260902021044 | 48 | 0.0 | 0.0 | 0.00 | 0.01 | 0.00 | 99 | 1020.0 | |
| 20260902020041 | 48 | 0.0 | 0.0 | 0.00 | 0.01 | 0.00 | 99 | 1020.1 | |
| 20260902015058 | 49 | 0.0 | 0.0 | 0.00 | 0.01 | 0.00 | 99 | 1020.0 | |
| 20260902014034 | 49 | 0.0 | 0.0 | 0.00 | 0.01 | 0.00 | 99 | 1020.1 | |
| 20260902013031 | 49 | 0.0 | 0.0 | 0.00 | 0.01 | 0.00 | 99 | 1020.0 | |
| 20260902012108 | 49 | 0.0 | 0.0 | 0.00 | 0.01 | 0.00 | 99 | 1020.1 | |
| 20260902011045 | 49 | 0.0 | 0.0 | 0.00 | 0.01 | 0.00 | 99 | 1020.1 | |
| 20260902010022 | 49 | 0.0 | 0.0 | 0.00 | 0.01 | 0.00 | 99 | 1020.2 | |
| 20260902004016 | 50 | 0.0 | 0.0 | 0.00 | 0.01 | 0.00 | 99 | 1020.2 | |
| 20260902003112 | 50 | 0.0 | 0.0 | 0.00 | 0.01 | 0.00 | 99 | 1020.3 | |
| 20260902002130 | 50 | 0.0 | 0.0 | 0.00 | 0.01 | 0.00 | 99 | 1020.3 | |
| 20260902001107 | 50 | 0.0 | 0.0 | 0.00 | 0.01 | 0.00 | 99 | 1020.4 | |
| 20260902000123 | 50 | 0.0 | 0.0 | 0.00 | 0.01 | 0.00 | 99 | 1020.4 | |
| 20260901235100 | 50 | 0.0 | 0.0 | 0.00 | 0.01 | 0.00 | 99 | 1020.4 | |
| 20260901234057 | 51 | 0.0 | 0.0 | 0.00 | 0.01 | 0.00 | 99 | 1020.3 | |
| 20260901233054 | 52 | 0.0 | 0.0 | 0.00 | 0.01 | 0.00 | 99 | 1020.3 | |
| 20260901232050 | 52 | 0.0 | 0.0 | 0.00 | 0.01 | 0.00 | 99 | 1020.1 | |
| 20260901231047 | 53 | 0.0 | 0.0 | 0.00 | 0.01 | 0.00 | 99 | 1020.2 | |
| 20260901225040 | 53 | 0.0 | 0.0 | 0.00 | 0.01 | 0.00 | 99 | 1020.2 | |
| 20260901224037 | 53 | 0.0 | 0.0 | 0.00 | 0.01 | 0.00 | 99 | 1020.2 | |
| 20260901223052 | 53 | 0.0 | 0.0 | 0.00 | 0.01 | 0.00 | 99 | 1020.1 | |
| 20260901220041 | 54 | 0.0 | 1.7 | 0.00 | 0.01 | 0.00 | 99 | 1020.1 | |
| 20260901214035 | 55 | 0.0 | 0.0 | 0.00 | 0.01 | 0.01 | 99 | 1019.9 | |
| 20260901213112 | 54 | 0.0 | 0.0 | 0.00 | 0.01 | 0.01 | 99 | 1020.0 | |
| 20260901212130 | 54 | 0.0 | 0.0 | 0.00 | 0.01 | 0.01 | 99 | 1020.1 | |
| 20260901211106 | 53 | 0.0 | 0.0 | 0.00 | 0.01 | 0.01 | 99 | 1020.0 | |
| 20260901205100 | 53 | 0.0 | 0.0 | 0.00 | 0.07 | 0.01 | 99 | 1019.9 | |
| 20260901204117 | 53 | 0.0 | 0.0 | 0.00 | 0.14 | 0.01 | 99 | 1019.9 | |
| 20260901203055 | 54 | 0.0 | 0.0 | 0.00 | 0.26 | 0.01 | 99 | 1019.9 | |
| 20260901202110 | 54 | 0.0 | 0.0 | 0.00 | 0.50 | 0.01 | 98 | 1019.8 | |
| 20260901201049 | 54 | 0.0 | 0.0 | 0.00 | 0.58 | 0.01 | 98 | 1019.8 | |
| 20260901200104 | 55 | 0.0 | 0.0 | 0.00 | 0.58 | 0.01 | 98 | 1019.7 |